Location: Newark
(3.3223°N, 76.2348°W)
Time: 14:40:30
(UTC+00:00)

BEESAT 2 - Pass Details

Date: 25 January 2020
Orbit: 493 x 534 km, 64.9° (Epoch: 28 February)

Event Time Altitude Azimuth Distance (km) Brightness Sun altitude
Rises 00:27:23 0° 207° (SSW) 2,584 ? -17.7°
Reaches altitude 10° 00:29:32 10° 209° (SSW) 1,705 ? -18.2°
Maximum altitude 00:33:18 66° 291° (WNW) 555 ? -19.1°
Enters shadow 00:35:04 30° 6° (N) 934 ? -19.5°
